• In Hungary
  • List of Countries
  • For 7 days
  • Water Temperature
  • Satellite Maps
  • Weather Map
  • News
  • Weather Widgets
  • user-avatar
    Login

    Hourly Weather Morobe

    Today, 14 November, Wednesday

    Time Temperature Precipitation Wind Pressure Humidity
    00:00 +28°C° 0.6 mm 1 mps 757 mmHg 94%
    01:00 +28°C° 0.6 mm 1 mps 757 mmHg 94%
    02:00 +28°C° 0.3 mm 1 mps 756 mmHg 93%
    03:00 +27°C° 0.3 mm 1 mps 756 mmHg 93%
    04:00 +27°C° 0 mm 1 mps 756 mmHg 92%
    05:00 +28°C° 0.2 mm 1 mps 756 mmHg 88%
    06:00 +29°C° 0.2 mm 1 mps 757 mmHg 84%
    07:00 +29°C° 0.2 mm 1 mps 757 mmHg 81%
    08:00 +31°C° 0.1 mm 1 mps 757 mmHg 73%
    09:00 +33°C° 0.1 mm 1 mps 757 mmHg 66%
    10:00 +35°C° 0 mm 1 mps 757 mmHg 60%
    11:00 +35°C° 0 mm 1 mps 757 mmHg 60%
    12:00 +36°C° 0 mm 2 mps 757 mmHg 61%
    13:00 +36°C° 0 mm 2 mps 756 mmHg 61%
    14:00 +35°C° 0.1 mm 2 mps 756 mmHg 65%
    15:00 +35°C° 0.1 mm 3 mps 756 mmHg 68%
    16:00 +33°C° 0 mm 3 mps 756 mmHg 78%
    17:00 +31°C° 0.1 mm 2 mps 756 mmHg 83%
    18:00 +30°C° 0.1 mm 1 mps 757 mmHg 88%
    19:00 +29°C° 0.1 mm 1 mps 757 mmHg 93%
    20:00 +29°C° 0.2 mm 1 mps 757 mmHg 94%
    21:00 +29°C° 0.2 mm 1 mps 757 mmHg 94%
    22:00 +29°C° 0.2 mm 1 mps 758 mmHg 95%
    23:00 +28°C° 0.3 mm 1 mps 758 mmHg 94%

    Tomorrow, 15 November, Thursday

    Time Temperature Precipitation Wind Pressure Humidity
    00:00 +28°C° 0.3 mm 1 mps 757 mmHg 93%
    01:00 +28°C° 0.3 mm 1 mps 757 mmHg 93%
    02:00 +28°C° 0.2 mm 1 mps 757 mmHg 93%
    03:00 +28°C° 0.2 mm 1 mps 757 mmHg 93%
    04:00 +28°C° 0.2 mm 1 mps 757 mmHg 93%
    05:00 +28°C° 0.2 mm 1 mps 757 mmHg 89%
    06:00 +29°C° 0.2 mm 1 mps 758 mmHg 86%
    07:00 +30°C° 0.2 mm 1 mps 758 mmHg 83%
    08:00 +31°C° 0.1 mm 1 mps 758 mmHg 76%
    09:00 +33°C° 0.1 mm 1 mps 758 mmHg 68%
    10:00 +35°C° 0.1 mm 1 mps 758 mmHg 60%
    11:00 +36°C° 0 mm 2 mps 757 mmHg 62%
    12:00 +36°C° 0 mm 2 mps 757 mmHg 64%
    13:00 +36°C° 0 mm 3 mps 756 mmHg 65%
    14:00 +35°C° 0.2 mm 3 mps 756 mmHg 69%
    15:00 +34°C° 0.2 mm 3 mps 756 mmHg 72%
    16:00 +34°C° 0.2 mm 3 mps 755 mmHg 75%
    17:00 +32°C° 0.2 mm 2 mps 756 mmHg 81%
    18:00 +31°C° 0.2 mm 2 mps 756 mmHg 87%
    19:00 +29°C° 0.2 mm 2 mps 757 mmHg 93%
    20:00 +29°C° 1.1 mm 2 mps 757 mmHg 93%
    21:00 +29°C° 1.1 mm 1 mps 758 mmHg 93%
    22:00 +29°C° 1.1 mm 1 mps 758 mmHg 94%
    23:00 +29°C° 0.4 mm 1 mps 758 mmHg 93%

    Day after tomorrow, 16 November, Friday

    Time Temperature Precipitation Wind Pressure Humidity
    00:00 +29°C° 0.4 mm 1 mps 758 mmHg 93%
    01:00 +28°C° 0.4 mm 1 mps 757 mmHg 93%
    02:00 +28°C° 0 mm 1 mps 757 mmHg 93%
    03:00 +28°C° 0 mm 1 mps 757 mmHg 93%
    04:00 +28°C° 0 mm 1 mps 757 mmHg 94%
    05:00 +28°C° 0.3 mm 1 mps 757 mmHg 91%
    06:00 +29°C° 0.3 mm 1 mps 757 mmHg 88%
    07:00 +30°C° 0.3 mm 1 mps 758 mmHg 85%
    08:00 +31°C° 0.1 mm 1 mps 758 mmHg 78%
    09:00 +33°C° 0.1 mm 1 mps 758 mmHg 72%
    10:00 +34°C° 0.1 mm 1 mps 758 mmHg 65%
    11:00 +35°C° 0.1 mm 2 mps 757 mmHg 66%
    12:00 +35°C° 0.1 mm 2 mps 757 mmHg 67%
    13:00 +35°C° 0.1 mm 3 mps 756 mmHg 68%
    14:00 +35°C° 0.2 mm 3 mps 755 mmHg 71%
    15:00 +34°C° 0.2 mm 3 mps 755 mmHg 75%
    16:00 +33°C° 0.2 mm 3 mps 755 mmHg 78%
    17:00 +31°C° 0.2 mm 2 mps 755 mmHg 83%
    18:00 +30°C° 0.2 mm 2 mps 756 mmHg 88%
    19:00 +29°C° 0.2 mm 2 mps 756 mmHg 93%
    20:00 +29°C° 1 mm 2 mps 757 mmHg 94%
    21:00 +29°C° 1 mm 1 mps 757 mmHg 95%
    22:00 +29°C° 1 mm 1 mps 757 mmHg 95%
    23:00 +28°C° 1 mm 1 mps 757 mmHg 95%

    17 November, Saturday

    Time Temperature Precipitation Wind Pressure Humidity
    00:00 +28°C° 1 mm 1 mps 757 mmHg 96%
    01:00 +28°C° 1 mm 1 mps 756 mmHg 96%
    02:00 +28°C° 0.6 mm 1 mps 756 mmHg 95%
    03:00 +28°C° 0.6 mm 1 mps 756 mmHg 94%
    04:00 +28°C° 0.6 mm 1 mps 756 mmHg 93%
    05:00 +29°C° 0.4 mm 1 mps 756 mmHg 91%
    06:00 +29°C° 0.4 mm 1 mps 757 mmHg 89%
    07:00 +29°C° 0.4 mm 1 mps 757 mmHg 87%
    08:00 +31°C° 0.6 mm 1 mps 757 mmHg 80%
    09:00 +32°C° 0.6 mm 1 mps 757 mmHg 73%
    10:00 +34°C° 0.6 mm 1 mps 758 mmHg 67%
    11:00 +35°C° 0.5 mm 2 mps 757 mmHg 69%
    12:00 +34°C° 0.5 mm 2 mps 756 mmHg 71%
    13:00 +34°C° 0.5 mm 2 mps 756 mmHg 73%
    14:00 +34°C° 1 mm 2 mps 755 mmHg 77%
    15:00 +32°C° 1 mm 2 mps 755 mmHg 82%
    16:00 +31°C° 1 mm 2 mps 754 mmHg 86%
    17:00 +30°C° 1.7 mm 2 mps 755 mmHg 88%
    18:00 +30°C° 1.7 mm 2 mps 756 mmHg 91%
    19:00 +29°C° 1.7 mm 1 mps 756 mmHg 94%
    20:00 +29°C° 1.7 mm 1 mps 757 mmHg 94%
    21:00 +29°C° 1.7 mm 1 mps 757 mmHg 93%
    22:00 +29°C° 1.7 mm 1 mps 758 mmHg 93%
    23:00 +29°C° 1.1 mm 1 mps 757 mmHg 93%

    18 November, Sunday

    Time Temperature Precipitation Wind Pressure Humidity
    00:00 +29°C° 1.1 mm 1 mps 757 mmHg 93%
    01:00 +28°C° 1.1 mm 1 mps 756 mmHg 93%
    02:00 +28°C° 0.8 mm 1 mps 756 mmHg 93%
    03:00 +28°C° 0.8 mm 1 mps 756 mmHg 93%
    04:00 +28°C° 0.8 mm 1 mps 755 mmHg 93%
    05:00 +28°C° 0.7 mm 1 mps 756 mmHg 92%
    06:00 +29°C° 0.7 mm 1 mps 757 mmHg 91%
    07:00 +29°C° 0.7 mm 1 mps 757 mmHg 90%
    08:00 +30°C° 1 mm 1 mps 757 mmHg 85%
    09:00 +31°C° 1 mm 1 mps 757 mmHg 80%
    10:00 +32°C° 1 mm 1 mps 757 mmHg 75%
    11:00 +33°C° 0.8 mm 1 mps 757 mmHg 74%
    12:00 +34°C° 0.8 mm 2 mps 756 mmHg 73%
    13:00 +34°C° 0.8 mm 2 mps 756 mmHg 71%
    14:00 +34°C° 1 mm 2 mps 755 mmHg 76%
    15:00 +32°C° 1 mm 2 mps 755 mmHg 81%
    16:00 +31°C° 1 mm 2 mps 755 mmHg 86%
    17:00 +30°C° 1.1 mm 2 mps 755 mmHg 88%
    18:00 +30°C° 1.1 mm 1 mps 756 mmHg 91%
    19:00 +29°C° 1.1 mm 1 mps 757 mmHg 93%
    20:00 +29°C° 1.5 mm 1 mps 757 mmHg 93%
    21:00 +29°C° 1.5 mm 1 mps 757 mmHg 93%
    22:00 +29°C° 1.5 mm 1 mps 758 mmHg 93%
    23:00 +29°C° 1.4 mm 1 mps 757 mmHg 93%

    19 November, Monday

    Time Temperature Precipitation Wind Pressure Humidity
    00:00 +28°C° 1.4 mm 1 mps 757 mmHg 93%
    01:00 +28°C° 1.4 mm 1 mps 756 mmHg 93%
    02:00 +28°C° 1.2 mm 1 mps 756 mmHg 92%
    03:00 +28°C° 1.2 mm 1 mps 756 mmHg 92%
    04:00 +28°C° 1.2 mm 1 mps 756 mmHg 91%
    05:00 +28°C° 1 mm 1 mps 757 mmHg 90%
    06:00 +27°C° 1 mm 0 mps 757 mmHg 89%
    07:00 +27°C° 1 mm 0 mps 758 mmHg 87%
    08:00 +30°C° 1.2 mm 1 mps 758 mmHg 84%
    09:00 +31°C° 1.2 mm 1 mps 758 mmHg 81%
    10:00 +32°C° 1.2 mm 1 mps 758 mmHg 78%
    11:00 +32°C° 1.2 mm 1 mps 757 mmHg 78%
    12:00 +32°C° 1.2 mm 1 mps 757 mmHg 78%
    13:00 +32°C° 1.2 mm 2 mps 756 mmHg 78%
    14:00 +32°C° 0.9 mm 2 mps 756 mmHg 81%
    15:00 +31°C° 0.9 mm 2 mps 756 mmHg 83%
    16:00 +31°C° 0.9 mm 2 mps 755 mmHg 86%
    17:00 +30°C° 1.1 mm 2 mps 756 mmHg 89%
    18:00 +29°C° 1.1 mm 1 mps 757 mmHg 92%
    19:00 +28°C° 1.1 mm 1 mps 757 mmHg 95%
    20:00 +28°C° 1.2 mm 1 mps 758 mmHg 94%
    21:00 +28°C° 1.2 mm 1 mps 758 mmHg 93%
    22:00 +28°C° 1.2 mm 1 mps 758 mmHg 93%
    23:00 +28°C° 1.1 mm 1 mps 758 mmHg 92%
    Show more